Wind_Speed
5 5 6 7 7 10 11 8 7 8 10 10 10 9 8 8 8 8 8 9 8 7 6 6 5 5 5 6 6 7 8 9 10 11 12 13 13 14 14 13 12 12 12 12 12 13 12 12 10
4 4 4 5 7 13 9 9 11 13 14 13 12 11 10 10 9 8 8 8 7 6 5 5 6 6 6 7 7 8 8 9 10 11 12 13 14 15 16 16 15 15 15 15 15 14 14 13 11
5 4 4 6 10 8 10 12 11 13 14 14 14 11 10 11 11 10 10 10 8 8 7 7 7 8 8 9 10 11 11 12 12 13 13 14 15 16 17 18 19 19 19 19 18 17 16 14 13
6 3 3 6 11 9 15 14 10 10 12 10 12 13 12 12 12 12 13 13 12 12 11 11 11 11 12 13 14 15 15 16 17 17 18 18 18 19 20 21 21 21 22 21 21 20 19 17 16
8 4 1 8 8 12 17 17 11 8 11 12 15 14 13 13 13 14 15 15 15 15 16 16 16 17 17 17 19 19 20 20 22 22 22 22 22 23 23 24 24 23 23 23 23 23 22 21 20
11 7 4 4 2 15 17 16 10 10 12 11 14 15 14 14 14 15 16 17 18 18 19 19 20 21 22 22 23 23 23 24 25 25 25 26 26 27 27 27 27 26 26 25 25 25 25 24 23
14 12 8 7 7 13 22 19 14 12 15 11 13 18 16 13 14 15 16 18 20 20 21 22 23 23 24 25 26 25 26 26 26 27 28 28 29 29 29 29 29 28 28 27 27 27 27 27 26
15 15 10 3 5 13 23 23 20 16 20 20 20 21 18 15 16 16 17 19 21 22 23 24 25 26 27 27 28 28 28 27 27 28 29 29 31 32 31 31 32 31 30 30 29 29 28 28 28
17 15 10 2 10 18 24 26 23 19 23 22 19 22 21 19 19 19 19 20 22 24 25 26 26 27 28 28 29 29 28 28 29 30 31 31 32 33 33 34 34 34 33 32 31 31 30 29 29
19 17 11 9 18 25 27 27 24 20 25 25 22 23 23 23 22 23 22 23 23 25 26 27 28 28 29 30 29 29 29 29 30 31 32 33 34 34 34 34 34 35 35 35 34 32 31 30 30
22 20 17 18 21 23 23 21 21 22 28 28 25 25 25 25 25 26 25 26 26 26 27 28 30 30 31 32 32 31 32 32 32 33 34 34 34 34 33 33 33 34 36 37 35 33 32 31 30
23 21 21 21 23 21 20 20 22 23 25 26 27 27 27 27 28 28 28 29 29 29 29 31 31 32 33 34 34 34 35 35 35 35 34 33 33 33 33 33 32 33 34 35 35 32 31 30 29
21 21 21 22 22 21 20 20 23 22 21 24 26 28 28 29 30 30 30 31 31 32 32 32 33 34 34 35 35 36 37 38 38 36 34 33 32 31 31 32 32 32 32 33 34 33 32 31 30
18 18 19 21 21 21 20 20 23 21 22 24 25 27 29 30 30 31 32 32 33 34 34 34 34 35 35 36 37 38 39 39 38 36 34 32 31 31 32 31 31 31 32 32 33 33 32 31 31
13 13 15 18 20 20 19 19 21 20 21 22 24 26 27 29 30 30 31 32 32 33 33 34 35 35 37 37 38 39 39 38 36 35 34 33 32 32 32 31 31 31 31 30 31 32 31 31 31
4 6 9 18 16 13 15 18 19 18 19 19 21 22 24 25 26 27 28 29 29 31 32 34 35 36 38 38 38 38 36 35 35 34 34 33 33 33 33 32 32 32 31 29 29 29 29 30 31
7 15 22 28 17 9 13 19 20 20 19 18 18 19 19 21 22 23 24 25 27 29 32 34 36 37 37 36 36 36 35 35 35 35 35 35 35 35 34 34 33 33 31 30 29 29 29 29 30
16 15 16 13 7 7 15 22 21 20 21 20 19 18 19 19 20 22 24 26 28 30 32 34 35 35 35 36 36 36 37 37 37 37 36 36 37 37 37 36 35 34 32 31 30 28 27 27 28
11 12 16 14 13 14 20 22 22 22 21 21 20 20 20 21 22 24 25 27 28 30 31 33 34 35 36 37 38 38 38 39 40 39 38 38 38 39 39 38 37 36 35 33 32 29 28 28 28
10 9 13 19 23 18 16 19 17 15 17 18 18 19 21 21 23 24 26 27 29 31 32 34 35 37 38 39 39 39 39 40 41 41 40 40 39 40 41 40 39 38 37 35 34 32 31 30 29
10 11 12 17 20 16 15 17 12 10 12 14 16 18 20 21 23 25 28 29 31 33 35 35 36 37 38 39 41 41 41 42 43 43 43 42 41 42 43 43 42 41 40 38 37 36 34 32 31
11 12 9 11 16 18 20 21 13 12 11 12 16 19 22 24 26 28 30 32 34 35 36 37 37 38 39 41 43 43 44 44 45 46 46 45 44 44 45 45 45 44 43 42 40 39 38 36 34
8 7 10 13 17 23 24 22 10 14 15 17 21 23 25 27 29 30 31 32 33 35 37 38 39 40 41 42 44 45 46 47 48 49 49 49 48 47 46 46 46 45 45 44 43 42 40 39 37
3 8 15 18 19 20 15 11 11 20 24 25 26 27 27 28 30 30 31 32 33 35 37 39 40 41 41 43 44 46 47 47 48 49 49 49 47 46 44 43 41 40 42 42 43 43 43 42 40
4 10 17 22 24 17 12 7 8 19 25 27 29 29 28 29 29 30 32 33 34 35 36 37 39 40 41 42 43 44 45 45 46 46 45 45 43 42 41 40 39 37 37 39 40 40 42 43 43
9 9 14 15 19 18 18 11 13 19 22 23 25 26 27 29 30 31 32 33 33 33 34 36 37 39 40 41 42 43 43 44 44 43 43 42 42 41 41 42 42 41 39 39 40 41 41 42 44
8 8 10 8 9 12 18 19 20 20 21 22 24 26 28 30 31 31 32 32 33 34 35 36 38 39 40 41 42 42 43 42 42 41 41 41 42 42 43 45 46 46 46 45 45 45 45 44 44
11 10 8 4 7 5 11 19 20 20 22 24 26 28 30 31 32 33 33 33 34 36 37 38 39 40 40 41 42 42 42 41 41 41 41 41 43 44 46 48 50 51 52 52 52 51 50 49 48
11 10 8 6 6 5 7 20 20 22 23 24 26 29 30 32 33 33 34 35 36 37 39 40 41 41 41 42 42 42 42 42 41 42 42 43 44 45 47 50 52 54 56 58 58 58 57 55 53
10 11 10 8 7 6 7 21 22 23 24 26 27 29 31 33 34 35 36 36 37 38 40 41 42 43 43 43 43 44 43 42 42 42 43 44 45 47 48 50 52 54 57 59 61 63 62 61 59
Wind_Direction
10 22 31 39 29 38 46 15 343 337 333 342 346 339 332 331 318 307 303 305 315 324 335 340 339 344 0 8 1 354 348 343 339 333 327 319 311 304 300 298 298 301 307 315 321 326 330 335 341
344 357 15 27 22 27 6 337 324 329 331 336 336 334 338 337 329 317 306 307 311 320 335 342 342 351 1 2 355 349 343 338 334 330 325 318 311 305 301 299 298 299 302 306 309 313 317 319 324
317 335 17 34 42 357 299 305 317 334 330 334 327 322 334 333 327 314 309 307 303 309 320 326 333 341 347 346 340 335 331 327 324 319 314 310 305 301 298 297 296 296 297 299 301 303 304 304 304
301 320 36 59 48 314 297 299 316 327 317 332 311 310 322 322 316 310 309 308 308 310 312 316 323 330 332 332 330 326 324 321 317 313 308 303 299 296 293 292 291 291 292 292 293 294 293 292 289
291 281 140 56 23 283 293 303 321 316 305 308 300 306 310 310 307 309 310 311 313 314 313 315 320 325 326 326 325 322 320 318 316 312 306 300 295 292 290 289 287 286 287 286 285 284 284 283 281
295 272 220 92 301 286 288 291 303 297 282 283 294 297 299 300 302 305 309 310 311 313 313 315 318 320 321 322 321 318 316 315 313 311 307 301 296 290 287 285 284 282 282 282 281 279 277 275 274
298 285 256 204 219 280 285 284 280 271 271 271 283 289 290 290 298 302 305 308 308 310 311 313 315 316 318 319 317 315 314 313 312 310 307 302 297 292 287 283 281 280 280 280 278 275 273 271 269
295 289 274 203 279 266 269 274 275 271 272 273 277 278 284 294 296 296 298 300 302 305 308 309 311 312 313 314 313 313 313 312 310 309 307 304 300 295 289 284 281 278 278 277 275 273 270 267 267
289 284 272 207 254 241 256 267 273 279 274 274 270 274 282 289 290 291 292 293 296 299 302 304 306 308 308 309 309 311 312 311 310 308 306 302 301 299 293 286 281 278 275 274 273 273 268 265 263
282 276 252 227 251 246 251 265 271 268 267 272 272 275 280 282 283 283 285 287 291 295 299 302 303 304 304 305 305 307 309 308 308 307 305 301 298 298 294 290 283 279 276 273 272 270 268 264 261
276 271 257 237 249 258 259 263 265 257 261 269 273 275 275 276 278 279 282 285 289 293 295 297 299 302 302 303 303 304 306 307 307 306 304 302 300 298 295 292 286 283 281 278 274 270 266 264 261
271 268 263 256 256 259 259 254 257 262 266 269 270 271 271 272 275 278 282 286 289 291 292 294 295 299 301 302 302 302 304 305 305 304 303 301 300 299 297 295 290 285 285 282 278 274 268 265 262
268 268 265 263 263 262 260 256 257 265 266 265 265 267 270 273 276 278 282 284 287 289 291 293 294 297 299 299 300 300 301 302 303 302 301 301 301 301 301 298 294 290 288 284 280 275 267 263 262
270 269 267 266 264 263 260 258 262 263 261 261 263 265 269 273 276 278 281 283 285 287 289 291 292 295 296 297 297 298 299 300 300 299 299 300 301 302 303 300 296 296 294 286 280 275 265 262 261
277 277 277 275 270 267 263 259 266 267 263 263 264 266 269 272 276 278 280 282 283 285 287 288 291 293 294 295 295 296 296 296 296 296 295 296 298 300 300 300 297 298 295 289 283 275 267 263 262
292 307 276 252 251 269 275 267 273 272 271 270 269 270 272 275 278 280 281 282 283 284 286 287 290 292 292 293 294 294 293 294 295 294 293 293 295 297 298 297 298 298 296 292 286 280 272 264 261
271 245 242 241 243 257 282 283 279 281 283 282 279 277 277 278 280 281 282 283 284 285 285 287 288 290 291 292 293 292 293 293 293 292 291 292 293 294 295 295 296 297 296 293 288 283 274 265 260
272 250 253 261 282 273 283 287 284 285 289 288 286 282 281 281 281 282 282 283 284 285 285 286 288 289 291 293 293 293 293 293 293 291 291 291 291 292 292 293 293 293 293 291 288 283 278 268 260
306 318 318 306 286 282 290 290 289 288 289 290 288 286 285 284 284 284 285 285 285 286 287 288 290 291 293 294 295 294 294 294 293 293 292 292 291 291 290 290 290 290 289 288 285 284 280 274 268
273 271 272 276 282 283 288 291 289 291 297 297 295 292 290 289 288 288 289 290 290 291 291 292 293 294 295 295 295 295 294 294 293 293 293 291 291 290 289 288 287 286 285 284 281 280 279 275 271
259 245 263 288 299 300 291 278 281 302 302 306 305 302 299 297 296 296 296 297 296 296 296 296 297 298 298 297 296 296 295 294 293 293 292 290 289 288 287 285 284 282 281 280 278 276 275 274 272
279 244 261 294 298 292 289 275 274 300 302 311 311 308 308 307 305 304 303 302 303 303 303 303 303 302 301 300 299 299 298 297 296 294 293 292 290 287 285 283 282 280 278 276 275 274 272 270 270
300 296 278 268 259 260 267 273 297 336 330 325 323 318 316 314 312 310 308 308 307 307 306 306 306 305 304 303 302 302 301 300 299 297 296 295 293 289 285 282 280 279 276 273 271 270 269 267 266
283 303 296 294 289 274 288 317 344 343 335 331 328 325 323 321 318 316 314 311 310 308 307 307 307 307 306 304 303 303 302 300 299 297 296 295 293 290 287 283 280 278 277 274 270 267 265 264 262
336 326 319 332 343 352 352 333 348 338 334 332 331 332 332 329 326 322 318 315 312 310 309 308 308 308 307 306 306 304 303 301 300 298 295 293 291 289 287 284 282 279 276 275 273 270 265 262 259
338 326 321 336 339 342 334 331 344 337 333 332 332 333 334 332 329 325 321 318 316 314 313 312 312 312 311 310 308 306 304 302 300 297 294 291 289 287 285 284 283 280 277 274 273 271 268 263 258
309 293 301 326 338 346 336 327 333 337 335 336 336 335 334 333 331 328 326 323 322 319 318 316 315 314 313 312 310 307 305 302 299 296 293 290 287 285 283 282 281 279 277 274 272 270 267 264 260
323 315 312 329 332 350 332 312 323 332 334 335 334 332 333 333 332 331 329 327 324 322 320 318 317 316 314 312 310 308 306 303 299 296 294 291 288 286 284 282 280 278 276 274 271 268 265 262 260
318 315 316 305 294 308 323 302 320 323 329 332 332 332 333 333 333 332 330 328 325 323 320 318 317 316 315 314 312 311 308 305 302 299 297 295 292 290 287 283 280 278 276 274 271 267 264 261 258
322 319 319 320 323 333 333 302 312 321 327 330 331 332 333 334 334 333 331 329 326 323 322 320 319 318 317 316 314 313 310 306 303 301 299 297 295 293 290 286 283 280 277 274 270 267 264 260 256
Height
5922 5923 5923 5924 5924 5921 5920 5922 5921 5920 5920 5918 5917 5916 5916 5916 5916 5917 5914 5912 5912 5911 5910 5910 5909 5909 5908 5907 5907 5906 5906 5905 5905 5904 5904 5904 5903 5903 5902 5901 5901 5900 5900 5899 5899 5898 5897 5895 5894
5922 5923 5924 5924 5923 5922 5922 5922 5921 5920 5919 5917 5916 5915 5915 5914 5914 5914 5913 5912 5912 5910 5910 5909 5908 5908 5907 5906 5906 5905 5905 5904 5903 5903 5903 5902 5902 5902 5901 5901 5900 5899 5899 5898 5898 5897 5896 5896 5894
5922 5922 5923 5924 5922 5924 5924 5923 5921 5919 5918 5917 5915 5914 5913 5913 5913 5912 5912 5912 5911 5910 5909 5909 5908 5907 5906 5906 5905 5904 5903 5903 5902 5902 5901 5901 5901 5900 5900 5899 5898 5898 5897 5896 5896 5896 5895 5895 5894
5921 5922 5923 5924 5923 5926 5923 5921 5920 5920 5916 5914 5913 5912 5911 5912 5912 5911 5910 5910 5910 5909 5908 5908 5907 5906 5905 5904 5903 5903 5902 5901 5900 5900 5899 5899 5898 5897 5897 5896 5896 5895 5895 5894 5894 5894 5893 5893 5893
5920 5921 5923 5922 5924 5926 5922 5920 5919 5919 5916 5914 5911 5911 5910 5910 5910 5909 5908 5908 5908 5907 5907 5906 5905 5904 5903 5902 5901 5900 5899 5898 5897 5896 5895 5894 5894 5893 5893 5892 5892 5892 5891 5891 5891 5890 5890 5890 5890
5919 5920 5921 5922 5928 5925 5922 5919 5919 5917 5915 5913 5909 5909 5909 5908 5908 5907 5906 5905 5905 5905 5904 5903 5903 5902 5901 5900 5898 5897 5896 5894 5893 5891 5890 5889 5888 5888 5887 5887 5886 5886 5886 5886 5886 5886 5886 5887 5887
5917 5917 5917 5919 5924 5925 5918 5916 5916 5914 5911 5909 5907 5906 5905 5905 5906 5906 5904 5903 5902 5902 5901 5901 5900 5899 5898 5896 5895 5893 5892 5890 5888 5887 5885 5883 5882 5881 5881 5880 5880 5880 5880 5881 5881 5881 5882 5882 5883
5913 5914 5914 5917 5923 5924 5915 5913 5912 5911 5907 5908 5907 5904 5903 5902 5904 5903 5902 5901 5900 5899 5899 5898 5897 5896 5894 5893 5891 5889 5888 5886 5884 5882 5880 5878 5876 5875 5874 5873 5873 5873 5873 5874 5874 5875 5876 5876 5877
5909 5911 5911 5914 5918 5917 5911 5909 5908 5907 5903 5903 5903 5901 5902 5902 5901 5900 5899 5899 5898 5896 5896 5895 5895 5893 5891 5889 5887 5885 5883 5882 5880 5877 5875 5873 5871 5869 5868 5867 5866 5866 5866 5866 5867 5867 5868 5869 5871
5906 5906 5907 5909 5910 5908 5906 5904 5905 5904 5899 5899 5898 5899 5899 5899 5898 5896 5895 5895 5895 5894 5892 5891 5890 5889 5887 5885 5883 5881 5879 5877 5875 5872 5870 5867 5865 5863 5861 5860 5859 5858 5858 5858 5859 5859 5860 5862 5864
5901 5901 5901 5901 5901 5901 5901 5900 5899 5898 5895 5895 5895 5895 5896 5894 5893 5892 5891 5891 5891 5891 5889 5888 5886 5884 5882 5880 5878 5876 5874 5872 5870 5867 5864 5861 5859 5856 5854 5853 5852 5850 5850 5850 5850 5851 5852 5854 5856
5896 5895 5895 5895 5894 5894 5895 5894 5893 5893 5892 5892 5891 5891 5890 5890 5889 5888 5887 5887 5886 5886 5884 5883 5881 5879 5877 5875 5872 5870 5868 5866 5864 5860 5857 5855 5853 5850 5848 5846 5844 5843 5842 5842 5842 5843 5844 5846 5848
5890 5891 5890 5890 5889 5889 5889 5889 5887 5888 5888 5887 5886 5886 5885 5885 5884 5883 5883 5882 5881 5880 5879 5878 5876 5875 5872 5870 5867 5865 5862 5859 5857 5854 5851 5849 5847 5844 5842 5840 5838 5836 5835 5834 5835 5835 5837 5838 5840
5885 5886 5886 5885 5885 5884 5884 5884 5883 5883 5883 5882 5882 5881 5881 5880 5879 5879 5878 5877 5876 5875 5874 5872 5871 5869 5867 5864 5862 5859 5856 5853 5850 5848 5845 5843 5841 5839 5836 5834 5832 5830 5828 5827 5828 5827 5828 5831 5833
5882 5883 5882 5882 5881 5880 5880 5880 5878 5878 5878 5877 5877 5877 5876 5875 5875 5874 5873 5872 5871 5869 5868 5866 5865 5863 5861 5858 5855 5852 5850 5847 5844 5841 5839 5837 5835 5833 5831 5828 5826 5824 5822 5821 5821 5821 5821 5824 5826
5879 5880 5880 5878 5876 5876 5878 5876 5874 5874 5873 5873 5873 5872 5872 5871 5870 5869 5868 5867 5865 5864 5863 5861 5859 5857 5854 5851 5848 5845 5842 5839 5837 5834 5832 5830 5828 5827 5825 5823 5821 5819 5817 5815 5815 5815 5815 5816 5818
5878 5876 5874 5871 5870 5871 5873 5872 5871 5869 5869 5869 5869 5868 5867 5867 5865 5864 5863 5862 5860 5859 5857 5855 5853 5850 5847 5844 5841 5838 5835 5832 5830 5827 5825 5823 5821 5819 5818 5817 5815 5813 5811 5810 5810 5810 5809 5810 5811
5871 5870 5868 5866 5866 5866 5869 5869 5867 5865 5865 5865 5864 5864 5863 5863 5861 5860 5858 5857 5855 5853 5851 5849 5846 5843 5840 5837 5834 5831 5828 5825 5822 5819 5818 5816 5814 5812 5810 5809 5808 5806 5805 5804 5803 5803 5803 5804 5804
5870 5871 5868 5867 5868 5868 5867 5866 5864 5863 5861 5861 5860 5860 5859 5858 5857 5855 5853 5852 5850 5848 5845 5842 5840 5837 5833 5829 5826 5823 5820 5817 5813 5811 5809 5807 5806 5804 5802 5801 5800 5799 5799 5798 5797 5797 5797 5797 5798
5873 5874 5873 5869 5868 5867 5863 5862 5860 5858 5858 5857 5856 5856 5855 5854 5852 5850 5848 5846 5844 5841 5838 5835 5832 5829 5825 5821 5817 5814 5811 5808 5805 5802 5800 5798 5797 5795 5793 5792 5792 5791 5791 5791 5790 5790 5791 5792 5792
5870 5870 5869 5868 5866 5862 5860 5857 5855 5855 5855 5854 5853 5851 5850 5849 5847 5845 5842 5839 5836 5833 5830 5827 5824 5820 5816 5812 5808 5805 5802 5799 5795 5792 5790 5788 5787 5785 5783 5781 5781 5781 5782 5782 5782 5782 5784 5784 5785
5868 5868 5868 5866 5863 5860 5859 5852 5850 5851 5850 5850 5850 5848 5847 5845 5842 5840 5836 5833 5829 5825 5821 5817 5814 5811 5807 5803 5798 5795 5791 5788 5785 5781 5778 5776 5775 5773 5771 5770 5769 5769 5770 5771 5773 5774 5775 5776 5777
5867 5866 5865 5862 5859 5856 5851 5844 5842 5846 5845 5847 5847 5845 5843 5840 5837 5834 5830 5826 5822 5818 5813 5809 5805 5802 5798 5793 5788 5784 5780 5776 5772 5769 5766 5763 5762 5760 5758 5757 5757 5756 5757 5759 5761 5763 5764 5766 5769
5865 5865 5863 5859 5855 5851 5848 5846 5846 5847 5845 5845 5844 5841 5839 5835 5832 5828 5824 5820 5816 5811 5807 5802 5797 5793 5789 5784 5779 5774 5770 5765 5761 5757 5754 5751 5749 5747 5745 5744 5744 5744 5744 5745 5748 5750 5753 5755 5758
5864 5863 5861 5856 5850 5847 5847 5845 5846 5847 5845 5843 5841 5838 5835 5831 5827 5822 5818 5813 5809 5805 5800 5795 5790 5785 5779 5774 5769 5764 5759 5755 5750 5746 5743 5740 5738 5736 5733 5732 5731 5732 5733 5733 5734 5736 5739 5742 5746
5863 5863 5861 5858 5856 5851 5846 5840 5844 5846 5846 5843 5840 5836 5832 5828 5823 5818 5813 5808 5803 5797 5792 5787 5782 5777 5771 5765 5760 5755 5750 5745 5741 5737 5733 5730 5728 5726 5724 5721 5720 5720 5721 5721 5722 5723 5725 5728 5732
5861 5860 5860 5859 5858 5856 5850 5846 5847 5846 5844 5842 5838 5834 5830 5824 5819 5813 5808 5802 5796 5791 5785 5780 5774 5769 5763 5757 5751 5746 5741 5736 5731 5727 5723 5720 5718 5715 5713 5711 5709 5707 5707 5708 5709 5710 5712 5714 5718
5860 5858 5857 5857 5856 5856 5855 5849 5848 5845 5843 5840 5836 5831 5826 5821 5815 5809 5802 5796 5791 5784 5778 5773 5767 5761 5755 5749 5743 5736 5731 5726 5721 5717 5713 5710 5707 5704 5701 5698 5696 5694 5693 5692 5693 5695 5697 5700 5703
5859 5858 5856 5855 5854 5855 5855 5851 5847 5844 5841 5838 5833 5828 5823 5816 5810 5804 5797 5791 5784 5778 5771 5765 5758 5752 5746 5739 5732 5726 5720 5715 5709 5705 5701 5697 5694 5691 5687 5684 5681 5678 5676 5675 5675 5676 5679 5682 5687
5858 5857 5856 5855 5854 5853 5854 5851 5845 5841 5838 5834 5830 5824 5818 5812 5805 5798 5791 5785 5778 5770 5763 5756 5749 5742 5735 5728 5722 5715 5709 5703 5698 5694 5689 5685 5680 5676 5672 5668 5664 5660 5657 5655 5654 5654 5657 5661 5666